This is the latest recevied weather packets stored in our database for station/object KE6YLF. If no packets are shown the sender has not sent any weather packets the latest 10 day(s).
| Time | Temp. | Humidity | Pressure | Rain* | Wind** | Luminosity | Snow |
|---|---|---|---|---|---|---|---|
| 1778326686 | 21.67° C | 24% | 1073.9 hPa | 0 mm | - | - | - |
| 1778326382 | 21.11° C | 25% | 1074 hPa | 0 mm | - | - | - |
| 1778326079 | 21.67° C | 24% | 1073.9 hPa | 0 mm | - | - | - |
| 1778325776 | 21.67° C | 24% | 1074 hPa | 0 mm | - | - | - |
| 1778325473 | 21.67° C | 24% | 1073.9 hPa | 0 mm | - | - | - |
| 1778325170 | 22.78° C | 23% | 1074 hPa | 0 mm | - | - | - |
| 1778324867 | 22.78° C | 23% | 1073.9 hPa | 0 mm | - | - | - |
| 1778324563 | 22.78° C | 23% | 1073.9 hPa | 0 mm | - | - | - |
| 1778324262 | 23.33° C | 23% | 1073.9 hPa | 0 mm | - | - | - |
| 1778323959 | 23.33° C | 23% | 1073.9 hPa | 0 mm | - | - | - |
| 1778323656 | 22.78° C | 24% | 1074 hPa | 0 mm | - | - | - |
| 1778323353 | 23.33° C | 24% | 1074 hPa | 0 mm | - | - | - |
| 1778323051 | 23.89° C | 24% | 1073.8 hPa | 0 mm | - | - | - |
| 1778322748 | 23.33° C | 24% | 1074 hPa | 0 mm | - | - | - |
| 1778322446 | 23.33° C | 24% | 1073.9 hPa | 0 mm | - | - | - |
| 1778322143 | 22.78° C | 25% | 1073.9 hPa | 0 mm | - | - | - |
| 1778321839 | 22.78° C | 25% | 1073.9 hPa | 0 mm | - | - | - |
| 1778321535 | 23.33° C | 24% | 1073.9 hPa | 0 mm | - | - | - |
| 1778321233 | 22.78° C | 26% | 1073.8 hPa | 0 mm | - | - | - |
| 1778320930 | 23.33° C | 25% | 1074 hPa | 0 mm | - | - | - |
| 1778320627 | 24.44° C | 24% | 1073.9 hPa | 0 mm | - | - | - |
| 1778320324 | 25° C | 24% | 1074 hPa | 0 mm | - | - | - |
| 1778320021 | 23.89° C | 26% | 1073.9 hPa | 0 mm | - | - | - |
| 1778319717 | 23.89° C | 26% | 1073.8 hPa | 0 mm | - | - | - |
| 1778319416 | 23.33° C | 26% | 1073.8 hPa | 0 mm | - | - | - |
* Rain latest hour (hover to see other rain measurements)
** Current wind speed in m/s (hover to see current wind gust speed)